Tracking 31027 objects as of 19-Jul-2025
HD Live streaming from Space Station
objects crossing your sky now

SL-12 R/B(2)

Track SL-12 R/B(2) now!


NORAD ID: 14951
Int'l Code: 1984-031F
Perigee: 35,969.6 km
Apogee: 36,093.2 km
Inclination: 9.7 °
Period: 1,448.3 minutes
Semi major axis: 42402 km
RCS: 2.1273 m2 (large)
Launch date: March 29, 1984
Source: Commonwealth of Independent States (former USSR) (CIS)
Launch site: TYURATAM MISSILE AND SPACE COMPLEX (TTMTR)

Note: This is a ROCKET BODY
Your satellite tracking list
RESURS O1 DEB
Track 1 satellite(s)




NASA's NSSDC Master Catalog

Two Line Element Set (TLE):
1 14951U 84031F   25199.59691667 -.00000307  00000-0  00000-0 0  9992
2 14951   9.7112 314.7944 0014571 243.6452  98.6382  0.99429978116481
Source of the keplerian elements: AFSPC